| time (UTC) | temp C | wind direction | speed KPH | gust KPH | rain 1hr cm | rain 24hr cm | rain mn cm | humidity % | barometer mb |
| 20260508213644 | 23 | 247 | 8.0 | 20.9 | 0.00 | 0.00 | 0.00 | 23 | 1016.0 |
| 20260508212631 | 22 | 266 | 8.0 | 19.3 | 0.00 | 0.00 | 0.00 | 23 | 1016.1 |
| 20260508211625 | 23 | 306 | 6.4 | 14.5 | 0.00 | 0.00 | 0.00 | 22 | 1016.2 |
| 20260508210652 | 22 | 221 | 11.3 | 20.9 | 0.00 | 0.00 | 0.00 | 24 | 1016.3 |
| 20260508205630 | 22 | 298 | 6.4 | 22.5 | 0.00 | 0.00 | 0.00 | 24 | 1016.3 |
| 20260508204642 | 23 | 238 | 4.8 | 12.9 | 0.00 | 0.00 | 0.00 | 23 | 1016.4 |
| 20260508203649 | 22 | 240 | 4.8 | 16.1 | 0.00 | 0.00 | 0.00 | 23 | 1016.4 |
| 20260508202622 | 22 | 249 | 4.8 | 14.5 | 0.00 | 0.00 | 0.00 | 23 | 1016.5 |
| 20260508201633 | 22 | 251 | 8.0 | 16.1 | 0.00 | 0.00 | 0.00 | 22 | 1016.5 |
| 20260508200622 | 22 | 298 | 8.0 | 14.5 | 0.00 | 0.00 | 0.00 | 26 | 1016.5 |
| 20260508195624 | 22 | 273 | 9.7 | 16.1 | 0.00 | 0.00 | 0.00 | 26 | 1016.4 |
| 20260508194617 | 22 | 241 | 9.7 | 14.5 | 0.00 | 0.00 | 0.00 | 26 | 1016.6 |
| 20260508193627 | 22 | 279 | 11.3 | 16.1 | 0.00 | 0.00 | 0.00 | 26 | 1016.6 |
| 20260508192616 | 21 | 184 | 6.4 | 19.3 | 0.00 | 0.00 | 0.00 | 28 | 1016.7 |
| 20260508191624 | 21 | 250 | 8.0 | 14.5 | 0.00 | 0.00 | 0.00 | 28 | 1016.6 |
| 20260508190616 | 21 | 255 | 8.0 | 14.5 | 0.00 | 0.00 | 0.00 | 30 | 1016.7 |
| 20260508185617 | 21 | 240 | 9.7 | 17.7 | 0.00 | 0.00 | 0.00 | 27 | 1016.7 |
| 20260508184625 | 21 | 278 | 6.4 | 11.3 | 0.00 | 0.00 | 0.00 | 30 | 1016.9 |
| 20260508183613 | 20 | 210 | 4.8 | 14.5 | 0.00 | 0.00 | 0.00 | 32 | 1016.9 |
| 20260508182625 | 21 | 263 | 11.3 | 16.1 | 0.00 | 0.00 | 0.00 | 32 | 1017.1 |
| 20260508181613 | 20 | 259 | 9.7 | 19.3 | 0.00 | 0.00 | 0.00 | 35 | 1017.4 |
| 20260508180626 | 20 | 226 | 9.7 | 17.7 | 0.00 | 0.00 | 0.00 | 37 | 1017.3 |
| 20260508175645 | 20 | 267 | 6.4 | 14.5 | 0.00 | 0.00 | 0.00 | 35 | 1017.5 |
| 20260508174632 | 20 | 204 | 6.4 | 16.1 | 0.00 | 0.00 | 0.00 | 34 | 1017.5 |
| 20260508173623 | 20 | 219 | 3.2 | 16.1 | 0.00 | 0.00 | 0.00 | 33 | 1017.6 |
| 20260508172611 | 20 | 275 | 4.8 | 16.1 | 0.00 | 0.00 | 0.00 | 35 | 1017.5 |
| 20260508171640 | 20 | 221 | 9.7 | 17.7 | 0.00 | 0.00 | 0.00 | 34 | 1017.5 |
| 20260508170629 | 20 | 257 | 8.0 | 14.5 | 0.00 | 0.00 | 0.00 | 30 | 1017.5 |
| 20260508165615 | 20 | 136 | 6.4 | 11.3 | 0.00 | 0.00 | 0.00 | 35 | 1017.6 |
| 20260508164626 | 20 | 323 | 3.2 | 6.4 | 0.00 | 0.00 | 0.00 | 34 | 1017.5 |
| 20260508163616 | 19 | 326 | 1.6 | 6.4 | 0.00 | 0.00 | 0.00 | 39 | 1017.5 |
| 20260508162624 | 19 | 355 | 1.6 | 6.4 | 0.00 | 0.00 | 0.00 | 39 | 1017.5 |
| 20260508161617 | 18 | 10 | 1.6 | 6.4 | 0.00 | 0.00 | 0.00 | 39 | 1017.5 |
| 20260508160624 | 18 | 360 | 3.2 | 6.4 | 0.00 | 0.00 | 0.00 | 40 | 1017.6 |
| 20260508155625 | 17 | 76 | 1.6 | 4.8 | 0.00 | 0.00 | 0.00 | 42 | 1017.5 |
| 20260508154615 | 16 | 360 | 1.6 | 6.4 | 0.00 | 0.00 | 0.00 | 44 | 1017.6 |
| 20260508153647 | 16 | 101 | 3.2 | 11.3 | 0.00 | 0.00 | 0.00 | 44 | 1017.5 |
| 20260508152616 | 15 | 38 | 1.6 | 8.0 | 0.00 | 0.00 | 0.00 | 47 | 1017.5 |
| 20260508151627 | 15 | 355 | 1.6 | 9.7 | 0.00 | 0.00 | 0.00 | 46 | 1017.4 |
| 20260508150615 | 14 | 76 | 3.2 | 9.7 | 0.00 | 0.00 | 0.00 | 47 | 1017.5 |
| 20260508145618 | 14 | 90 | 1.6 | 6.4 | 0.00 | 0.00 | 0.00 | 50 | 1017.3 |
| 20260508144626 | 13 | 103 | 1.6 | 4.8 | 0.00 | 0.00 | 0.00 | 51 | 1017.3 |
| 20260508143614 | 12 | 103 | 1.6 | 3.2 | 0.00 | 0.00 | 0.00 | 51 | 1017.2 |
| 20260508142642 | 12 | 103 | 1.6 | 3.2 | 0.00 | 0.00 | 0.00 | 56 | 1017.0 |
| 20260508141614 | 11 | 103 | 0.0 | 1.6 | 0.00 | 0.00 | 0.00 | 57 | 1017.1 |
| 20260508140624 | 10 | 103 | 0.0 | 3.2 | 0.00 | 0.00 | 0.00 | 59 | 1016.9 |
| 20260508135624 | 10 | 103 | 0.0 | 3.2 | 0.00 | 0.00 | 0.00 | 63 | 1016.9 |
| 20260508134615 | 8 | 103 | 0.0 | 1.6 | 0.00 | 0.00 | 0.00 | 66 | 1016.9 |
| 20260508133623 | 7 | 105 | 0.0 | 3.2 | 0.00 | 0.00 | 0.00 | 69 | 1016.9 |
| 20260508132618 | 7 | 105 | 0.0 | 1.6 | 0.00 | 0.00 | 0.00 | 68 | 1016.7 |
| 20260508131629 | 7 | 105 | 0.0 | 6.4 | 0.00 | 0.00 | 0.00 | 69 | 1016.4 |
| 20260508130620 | 7 | 199 | 0.0 | 0.0 | 0.00 | 0.00 | 0.00 | 70 | 1016.2 |
| 20260508125624 | 6 | 199 | 0.0 | 0.0 | 0.00 | 0.00 | 0.00 | 70 | 1016.1 |
| 20260508124615 | 6 | 199 | 0.0 | 0.0 | 0.00 | 0.00 | 0.00 | 70 | 1015.9 |
| 20260508123646 | 7 | 199 | 0.0 | 0.0 | 0.00 | 0.00 | 0.00 | 69 | 1015.8 |
| 20260508122616 | 6 | 148 | 0.0 | 0.0 | 0.00 | 0.00 | 0.00 | 69 | 1015.6 |
| 20260508121612 | 7 | 148 | 0.0 | 0.0 | 0.00 | 0.00 | 0.00 | 69 | 1015.8 |
| 20260508120625 | 7 | 148 | 0.0 | 0.0 | 0.00 | 0.00 | 0.00 | 68 | 1015.6 |
| 20260508115627 | 7 | 148 | 0.0 | 0.0 | 0.00 | 0.00 | 0.00 | 68 | 1015.5 |
| 20260508114617 | 7 | 148 | 0.0 | 0.0 | 0.00 | 0.00 | 0.00 | 68 | 1015.5 |
| 20260508113629 | 7 | 148 | 0.0 | 0.0 | 0.00 | 0.00 | 0.00 | 68 | 1015.5 |
| 20260508112635 | 7 | 148 | 0.0 | 0.0 | 0.00 | 0.00 | 0.00 | 68 | 1015.5 |
| 20260508111623 | 7 | 148 | 0.0 | 0.0 | 0.00 | 0.00 | 0.00 | 69 | 1015.4 |
| 20260508110651 | 7 | 148 | 0.0 | 0.0 | 0.00 | 0.00 | 0.00 | 69 | 1015.5 |
| 20260508105629 | 7 | 148 | 0.0 | 0.0 | 0.00 | 0.00 | 0.00 | 68 | 1015.4 |
| 20260508104621 | 7 | 148 | 0.0 | 0.0 | 0.00 | 0.00 | 0.00 | 67 | 1015.2 |
| 20260508103630 | 7 | 148 | 0.0 | 0.0 | 0.00 | 0.00 | 0.00 | 67 | 1015.2 |
| 20260508102619 | 7 | 148 | 0.0 | 0.0 | 0.00 | 0.00 | 0.00 | 68 | 1015.1 |
| 20260508101611 | 7 | 148 | 0.0 | 0.0 | 0.00 | 0.00 | 0.00 | 67 | 1015.1 |
| 20260508100619 | 8 | 148 | 0.0 | 0.0 | 0.00 | 0.00 | 0.00 | 66 | 1015.1 |
| 20260508095621 | 8 | 148 | 0.0 | 0.0 | 0.00 | 0.00 | 0.00 | 67 | 1015.2 |
| 20260508094631 | 8 | 148 | 0.0 | 0.0 | 0.00 | 0.00 | 0.00 | 67 | 1015.2 |
| 20260508093623 | 8 | 148 | 0.0 | 0.0 | 0.00 | 0.00 | 0.00 | 66 | 1015.2 |
| 20260508092614 | 8 | 148 | 0.0 | 0.0 | 0.00 | 0.00 | 0.00 | 66 | 1015.2 |
| 20260508091625 | 8 | 148 | 0.0 | 0.0 | 0.00 | 0.00 | 0.00 | 65 | 1015.2 |
| 20260508090617 | 8 | 148 | 0.0 | 0.0 | 0.00 | 0.00 | 0.00 | 65 | 1015.2 |
| 20260508085622 | 8 | 148 | 0.0 | 0.0 | 0.00 | 0.00 | 0.00 | 66 | 1015.2 |
| 20260508084631 | 8 | 148 | 0.0 | 0.0 | 0.00 | 0.00 | 0.00 | 65 | 1015.2 |
| 20260508083619 | 8 | 148 | 0.0 | 0.0 | 0.00 | 0.00 | 0.00 | 64 | 1015.1 |
| 20260508082627 | 9 | 148 | 0.0 | 0.0 | 0.00 | 0.00 | 0.00 | 64 | 1015.1 |
| 20260508081639 | 9 | 148 | 0.0 | 0.0 | 0.00 | 0.00 | 0.00 | 64 | 1015.0 |
| 20260508080628 | 9 | 148 | 0.0 | 0.0 | 0.00 | 0.00 | 0.00 | 64 | 1015.1 |
| 20260508075629 | 9 | 148 | 0.0 | 0.0 | 0.00 | 0.00 | 0.00 | 63 | 1015.1 |
| 20260508074618 | 10 | 148 | 0.0 | 0.0 | 0.00 | 0.00 | 0.00 | 62 | 1015.2 |
| 20260508073631 | 10 | 148 | 0.0 | 0.0 | 0.00 | 0.00 | 0.00 | 61 | 1015.1 |
| 20260508072621 | 10 | 148 | 0.0 | 0.0 | 0.00 | 0.00 | 0.00 | 61 | 1015.2 |
| 20260508071611 | 10 | 148 | 0.0 | 0.0 | 0.00 | 0.00 | 0.00 | 61 | 1015.1 |
| 20260508070620 | 10 | 148 | 0.0 | 0.0 | 0.00 | 0.00 | 0.00 | 61 | 1015.1 |
| 20260508065623 | 10 | 148 | 0.0 | 0.0 | 0.00 | 0.00 | 0.00 | 60 | 1015.0 |
| 20260508064611 | 10 | 148 | 0.0 | 0.0 | 0.00 | 0.00 | 0.00 | 60 | 1015.0 |
| 20260508063620 | 11 | 148 | 0.0 | 0.0 | 0.00 | 0.00 | 0.00 | 58 | 1014.9 |
| 20260508062629 | 11 | 148 | 0.0 | 0.0 | 0.00 | 0.00 | 0.00 | 59 | 1015.0 |
| 20260508061624 | 11 | 148 | 0.0 | 0.0 | 0.00 | 0.00 | 0.00 | 57 | 1014.8 |
| 20260508060618 | 11 | 148 | 0.0 | 0.0 | 0.00 | 0.00 | 0.00 | 57 | 1014.8 |
| 20260508055617 | 12 | 148 | 0.0 | 0.0 | 0.00 | 0.00 | 0.00 | 56 | 1014.8 |
| 20260508054645 | 12 | 148 | 0.0 | 0.0 | 0.00 | 0.00 | 0.00 | 54 | 1014.7 |
| 20260508053651 | 12 | 148 | 0.0 | 0.0 | 0.00 | 0.00 | 0.00 | 54 | 1014.8 |
| 20260508052622 | 12 | 148 | 0.0 | 0.0 | 0.00 | 0.00 | 0.00 | 53 | 1014.7 |
| 20260508051649 | 12 | 148 | 0.0 | 0.0 | 0.00 | 0.00 | 0.00 | 53 | 1014.6 |
| 20260508050617 | 13 | 148 | 0.0 | 0.0 | 0.00 | 0.00 | 0.00 | 52 | 1014.5 |
| 20260508045618 | 13 | 148 | 0.0 | 0.0 | 0.00 | 0.00 | 0.00 | 52 | 1014.5 |
| 20260508044631 | 13 | 148 | 0.0 | 0.0 | 0.00 | 0.00 | 0.00 | 51 | 1014.5 |
| 20260508043617 | 13 | 148 | 0.0 | 0.0 | 0.00 | 0.00 | 0.00 | 51 | 1014.6 |
| 20260508042627 | 13 | 148 | 0.0 | 0.0 | 0.00 | 0.00 | 0.00 | 51 | 1014.5 |
| 20260508041657 | 14 | 148 | 0.0 | 0.0 | 0.00 | 0.00 | 0.00 | 47 | 1014.4 |
| 20260508041625 | 14 | 148 | 0.0 | 0.0 | 0.00 | 0.00 | 0.00 | 47 | 1014.4 |
| 20260508040617 | 15 | 148 | 0.0 | 0.0 | 0.00 | 0.00 | 0.00 | 48 | 1014.4 |
| 20260508035618 | 15 | 148 | 0.0 | 0.0 | 0.00 | 0.00 | 0.00 | 47 | 1014.3 |
| 20260508034646 | 16 | 148 | 0.0 | 0.0 | 0.00 | 0.00 | 0.00 | 43 | 1014.3 |
| 20260508033650 | 16 | 148 | 0.0 | 0.0 | 0.00 | 0.00 | 0.00 | 43 | 1014.2 |
| 20260508032615 | 17 | 148 | 0.0 | 0.0 | 0.00 | 0.00 | 0.00 | 41 | 1014.0 |
| 20260508031628 | 17 | 148 | 0.0 | 0.0 | 0.00 | 0.00 | 0.00 | 38 | 1013.9 |
| 20260508030614 | 17 | 148 | 0.0 | 0.0 | 0.00 | 0.00 | 0.00 | 37 | 1013.8 |
| 20260508025630 | 18 | 148 | 0.0 | 0.0 | 0.00 | 0.00 | 0.00 | 37 | 1013.8 |
| 20260508024620 | 18 | 148 | 0.0 | 0.0 | 0.00 | 0.00 | 0.00 | 35 | 1013.7 |
| 20260508023614 | 20 | 264 | 0.0 | 0.0 | 0.00 | 0.00 | 0.00 | 34 | 1013.5 |
| 20260508022644 | 20 | 264 | 0.0 | 0.0 | 0.00 | 0.00 | 0.00 | 34 | 1013.6 |
| 20260508021630 | 21 | 264 | 0.0 | 0.0 | 0.00 | 0.00 | 0.00 | 31 | 1013.5 |
| 20260508020621 | 21 | 264 | 0.0 | 0.0 | 0.00 | 0.00 | 0.00 | 29 | 1013.5 |
| 20260508015623 | 22 | 264 | 0.0 | 3.2 | 0.00 | 0.00 | 0.00 | 28 | 1013.5 |
| 20260508014652 | 22 | 264 | 1.6 | 6.4 | 0.00 | 0.00 | 0.00 | 27 | 1013.6 |
| 20260508013622 | 22 | 247 | 3.2 | 8.0 | 0.00 | 0.00 | 0.00 | 27 | 1013.6 |
| 20260508012631 | 22 | 273 | 1.6 | 12.9 | 0.00 | 0.00 | 0.00 | 26 | 1013.5 |
| 20260508011624 | 22 | 286 | 6.4 | 12.9 | 0.00 | 0.00 | 0.00 | 26 | 1013.5 |
| 20260508010612 | 22 | 251 | 3.2 | 11.3 | 0.00 | 0.00 | 0.00 | 27 | 1013.7 |
| 20260508005652 | 22 | 236 | 6.4 | 16.1 | 0.00 | 0.00 | 0.00 | 26 | 1013.7 |
| 20260508004619 | 22 | 232 | 8.0 | 12.9 | 0.00 | 0.00 | 0.00 | 25 | 1013.5 |
| 20260508003612 | 23 | 243 | 4.8 | 12.9 | 0.00 | 0.00 | 0.00 | 25 | 1013.6 |
| 20260508002621 | 22 | 263 | 8.0 | 14.5 | 0.00 | 0.00 | 0.00 | 26 | 1013.5 |
| 20260508001632 | 23 | 124 | 8.0 | 12.9 | 0.00 | 0.00 | 0.00 | 25 | 1013.6 |
| 20260508000623 | 23 | 259 | 6.4 | 16.1 | 0.00 | 0.00 | 0.00 | 25 | 1013.9 |
| 20260507235624 | 23 | 234 | 8.0 | 14.5 | 0.00 | 0.00 | 0.00 | 26 | 1014.0 |
| 20260507234617 | 23 | 225 | 4.8 | 12.9 | 0.00 | 0.00 | 0.00 | 25 | 1014.1 |
| 20260507233627 | 23 | 262 | 3.2 | 8.0 | 0.00 | 0.00 | 0.00 | 25 | 1014.2 |
| 20260507232614 | 22 | 281 | 3.2 | 11.3 | 0.00 | 0.00 | 0.00 | 26 | 1014.4 |
| 20260507231622 | 22 | 250 | 3.2 | 9.7 | 0.00 | 0.00 | 0.00 | 26 | 1014.3 |
| 20260507230650 | 22 | 148 | 1.6 | 8.0 | 0.00 | 0.00 | 0.00 | 27 | 1014.4 |
| 20260507225630 | 22 | 250 | 3.2 | 11.3 | 0.00 | 0.00 | 0.00 | 29 | 1014.6 |
| 20260507224638 | 21 | 257 | 6.4 | 11.3 | 0.00 | 0.00 | 0.00 | 27 | 1015.0 |
| 20260507223624 | 21 | 182 | 4.8 | 14.5 | 0.00 | 0.00 | 0.00 | 28 | 1015.1 |
| 20260507222613 | 21 | 218 | 3.2 | 11.3 | 0.00 | 0.00 | 0.00 | 29 | 1015.1 |
| 20260507221646 | 21 | 254 | 4.8 | 14.5 | 0.00 | 0.00 | 0.00 | 28 | 1015.3 |
| 20260507220621 | 21 | 263 | 3.2 | 12.9 | 0.00 | 0.00 | 0.00 | 28 | 1015.3 |
| 20260507215643 | 21 | 240 | 3.2 | 16.1 | 0.00 | 0.00 | 0.00 | 28 | 1015.4 |
| 20260507214649 | 21 | 234 | 6.4 | 14.5 | 0.00 | 0.00 | 0.00 | 27 | 1015.4 |